STARLINK-34595, 64749

Orbit data source: Space-Track

STARLINK-34595, 64749 is a payload satellite owned by SpaceX/Seattle (US) in LEO that was launched on Wed, 02 Jul 2025 UTC via an FALCON 9 launch vehicle from the Air Force Eastern Test Range (AFETR). Payload-class satellites include a variety of spacecraft equipped with specific instruments for various scientific and technological missions. These include communications satellites like Starlink; space stations such as the ISS; scientific satellites like the Hubble; Earth observation satellites from companies like Planet Labs, Umbra, and HawkEye 360; GPS; miniature CubeSats for education and research; and military/defense satellites.

Loading next visibility...
Identifier
64749, 2025-144AB
Orbit
LEO
Country
Flag of USUS
Related business
Manufacturer
SpaceX/Seattle
Mission
Operational Commercial Communications
Bus & Motor
STARLINK V2MO, Unknown motor
Mass
575 kg wet, ~530 kg dry
Launch date (UTC)
2025-07-02 (1 year ago)
Launch vehicle
FALCON 9
Launch site
Air Force Eastern Test Range (AFETR)
Object type
Payload
Rocket body
Debris
Shape & HBR
Box + 2 Pan, 17.7 m
Radar Cross Section
36.964 m², Large (>1 m²)

Expand to show TLE details & history
Last TLE update: 1 day ago

TLE from 1 day ago
0 STARLINK-34595
1 64749U 25144AB  26170.92715944  .00010460  00000-0  36469-3 0  9995
2 64749  53.1586  66.2405 0001369  90.9713 269.1445 15.30209540 55360
Epoch: 2026-06-19T22:15Z
TLE epoch observation values (Epoch: 2026-06-19T22:15:06.575Z)
Latitude
Longitude
-175.68601°
Altitude
476.1 km
Speed
7.629 km/s
True Right ascension
04h 24m 57s
True Declination
0° 00' 00"
Sunlit
Object was in daylight at epoch
Visualization orbit readout
Latitude
Unknown
Longitude
Unknown
Altitude
Unknown
Speed
Unknown
Apparent Right ascension
Unknown
Apparent Declination
Unknown
Sunlit
N/A
Visualization observer readout
Local Sidereal Time
10:19:05
Azimuth
Unknown
Elevation
Unknown
Doppler factor
Unknown
Orbital elements
Apogee altitude
476.381 km
Perigee altitude
474.505 km
Semi-major axis
6,853.58 km
Eccentricity
0.00014
Inclination
53.1586°
RAAN
66.2405°
Arg. of periapsis
90.9713°
True anomaly
269.12881°
Mean anomaly
269.1445°
Eccentric anomaly
269.13666°
Mean motion
3.82531 °/min
Orbital period
94.11 mins
BSTAR
0.00036469
Loading maneuver chart data...
Computing Atmospheric mass density...
Loading historical data...
Loading historical data...
Loading historical data...
Loading historical data...
Loading historical data...
Loading historical data...
Loading historical data...

Documentation

Showing up to 5 results
|